TimePDT,TemperatureF,Dew PointF,Humidity,Sea Level PressureIn,VisibilityMPH,Wind Direction,Wind SpeedMPH,Gust SpeedMPH,PrecipitationIn,Events,Conditions,WindDirDegrees,DateUTC
12:00 AM,54.0,32.0,43,30.00,-9999.0,South,1.2,-,N/A,,Unknown,190,2013-04-03 07:00:00
1:00 AM,51.1,34.7,54,30.02,-9999.0,NE,2.3,-,N/A,,Unknown,40,2013-04-03 08:00:00
2:00 AM,52.2,34.5,51,30.03,-9999.0,NE,4.6,-,N/A,,Unknown,50,2013-04-03 09:00:00
3:00 AM,52.3,34.9,51,30.04,-9999.0,NNW,5.8,-,N/A,,Unknown,340,2013-04-03 10:00:00
4:00 AM,52.9,31.3,44,30.05,-9999.0,NNW,4.6,-,N/A,,Unknown,340,2013-04-03 11:00:00
5:00 AM,51,35,41,30.06,,NNW,5.8,,,,,330,2013-04-03 12:00:00
5:00 AM,51.3,34.5,53,30.06,-9999.0,NNW,5.8,-,N/A,,Unknown,330,2013-04-03 12:00:00
6:00 AM,49.5,34.2,56,30.08,-9999.0,NNW,2.3,-,N/A,,Unknown,330,2013-04-03 13:00:00
7:00 AM,46.2,33.6,61,30.10,-9999.0,SE,3.5,-,N/A,,Unknown,130,2013-04-03 14:00:00
8:00 AM,49.3,37.8,65,30.11,-9999.0,SSE,1.2,-,N/A,,Unknown,150,2013-04-03 15:00:00
9:00 AM,53.1,35.4,51,30.10,-9999.0,North,4.6,-,N/A,,Unknown,360,2013-04-03 16:00:00
10:00 AM,56.5,36.7,48,30.09,-9999.0,North,4.6,-,N/A,,Unknown,10,2013-04-03 17:00:00
11:00 AM,61,35,26,30.06,,WNW,4.6,,,,,290,2013-04-03 18:00:00
11:00 AM,61.3,34.9,37,30.06,-9999.0,WNW,4.6,-,N/A,,Unknown,290,2013-04-03 18:00:00
12:00 PM,63.7,34.7,34,30.05,-9999.0,NW,3.5,-,N/A,,Unknown,310,2013-04-03 19:00:00
1:00 PM,64.2,33.1,31,30.02,-9999.0,North,3.5,-,N/A,,Unknown,360,2013-04-03 20:00:00
2:00 PM,67.3,33.4,29,30.01,-9999.0,SSW,3.5,-,N/A,,Unknown,210,2013-04-03 21:00:00
3:00 PM,67.6,30.6,25,30.00,-9999.0,South,3.5,-,N/A,,Unknown,190,2013-04-03 22:00:00
4:00 PM,70.0,34.0,27,29.97,-9999.0,South,5.8,-,N/A,,Unknown,180,2013-04-03 23:00:00
5:00 PM,68,34,17,29.96,,South,3.5,,,,,170,2013-04-04 00:00:00
5:00 PM,68.0,33.6,28,29.96,-9999.0,South,3.5,-,N/A,,Unknown,170,2013-04-04 00:00:00
6:00 PM,68.7,33.1,27,29.96,-9999.0,SSE,3.5,-,N/A,,Unknown,150,2013-04-04 01:00:00
7:00 PM,65.1,34.7,32,29.95,-9999.0,ESE,3.5,-,N/A,,Unknown,120,2013-04-04 02:00:00
8:00 PM,64.2,34.0,32,29.94,-9999.0,East,3.5,-,N/A,,Unknown,100,2013-04-04 03:00:00
9:00 PM,56.8,38.7,51,29.96,-9999.0,North,3.5,-,N/A,,Unknown,10,2013-04-04 04:00:00
10:00 PM,55.2,38.5,53,29.97,-9999.0,North,3.5,-,N/A,,Unknown,10,2013-04-04 05:00:00
11:00 PM,53,38,45,29.97,,North,1.2,,,,,10,2013-04-04 06:00:00
11:00 PM,53.1,37.8,56,29.97,-9999.0,North,1.2,-,N/A,,Unknown,10,2013-04-04 06:00:00